Location: Luxembourg
(49.6117°N, 6.1300°E)
Time: 21:41:19
(UTC+02:00)

N. Korean satellite - Visible Passes

Search period start: 23 September 2018 00:00
Search period end: 03 October 2018 00:00
Orbit: 458 x 511 km, 97.2° (Epoch: 22 September)

Date Brightness Start Highest point End Pass type
(mag) Time Alt. Az. Time Alt. Az. Time Alt. Az.
24 Sep 10.5 06:50:53 10° ENE 06:52:21 12° E 06:53:48 10° ESE visible
25 Sep 10.0 20:13:11 10° SW 20:15:19 15° W 20:17:29 10° NW visible
28 Sep 10.8 06:47:21 10° ENE 06:48:23 11° E 06:49:25 10° ESE visible
29 Sep 9.9 20:08:57 10° SW 20:11:20 17° W 20:13:45 10° NW visible
30 Sep 9.0 19:43:35 10° SSW 19:46:47 30° W 19:50:03 10° NNW visible
02 Oct 10.6 20:31:29 10° W 20:31:56 10° W 20:32:23 10° W visible
